{"data":{"norad_id":66429,"epoch":"2026-09-20T00:33:16.699680Z","epoch_age_seconds":134596,"freshness":"FRESH","line1":"1 66429U 25259H   26263.02310995  .00015821  00000+0  58305-3 0  9998","line2":"2 66429  42.9969 256.7207 0000407 296.9149  63.1661 15.27588455 49217","mean_motion":15.27588455,"eccentricity":4.07e-5,"inclination_deg":42.9969,"raan_deg":256.7207,"arg_perigee_deg":296.9149,"mean_anomaly_deg":63.1661,"bstar":0.00058305,"rev_number":4921,"period_min":94.266226959669,"perigee_km":482.74452960106,"apogee_km":483.30302808845,"semimajor_km":6861.1607788448,"source":"CELESTRAK","updated_at":"2026-09-21T09:00:35.907289Z"}}